Location: Bittkow
(50.3000°N, 19.0000°E)
Time: 15:04:32
(UTC+00:00)

SL-16 R/B - Pass Details

Date: 19 September 2020
Orbit: 985 x 1007 km, 99.5° (Epoch: 27 October)

Event Time Altitude Azimuth Distance (km) Brightness Sun altitude
Exits shadow 00:12:19 52° 351° (N) 1,221 3.1 -34.5°
Drops below altitude 10° 00:16:52 10° 345° (NNW) 2,757 5.3 -34.2°
Sets 00:19:20 0° 345° (NNW) 3,709 6.1 -34.0°
